XIWANG-1 (HOPE-1)

Last updated on Mon Sep 15 2025 00:03:09 GMT+0000 (Coordinated Universal Time)

1 36122U 09072B 25257.21408251 .00000000 00000+0 11589-3 0 9992 2 36122 100.3588 210.9855 0007809 140.1293 220.0395 13.16427977756696
UTC large
Height (km)
Speed (km/s)
/
Latitude / Longitude
Inclination (degrees)
Orbital Period (minutes)
Azimuth
Elevation
Range (km)
Doppler Factor

Next 0 passes for location: London (51.5072 / 0.1276)

Sorry there are no passes over London.